FDY132 KPUB-KDEN

Flight info

Callsign FDY132
Flight time 0h 28m
Altitude 16000
Route PUB V389 FQF
Aircraft PC12/L-SDFGRWY/S

Departure

Time 2026-05-08 20:44
Airport Pueblo Memorial Airport (KPUB)

Arrival

Time 2026-05-08 21:13
Airport Denver International Airport (KDEN)
Time Latitude Longitude Altitude Speed Heading
2026-05-08 20:30 38.28407 -104.49704 4670 ft 0 kts 272°
2026-05-08 20:32 38.28407 -104.49703 4670 ft 0 kts 272°
2026-05-08 20:41 38.28409 -104.49718 4670 ft 6 kts 287°
2026-05-08 20:41 38.28439 -104.49797 4672 ft 14 kts 297°
2026-05-08 20:41 38.28506 -104.49918 4674 ft 18 kts 300°
2026-05-08 20:41 38.28518 -104.50056 4678 ft 17 kts 274°
2026-05-08 20:42 38.28570 -104.50199 4680 ft 19 kts 321°
2026-05-08 20:42 38.28647 -104.50280 4678 ft 14 kts 321°
2026-05-08 20:42 38.28720 -104.50289 4682 ft 13 kts 77°
2026-05-08 20:42 38.28735 -104.50011 4684 ft 53 kts 84°
2026-05-08 20:43 38.28752 -104.49471 4677 ft 69 kts 86°
2026-05-08 20:43 38.28774 -104.48752 4665 ft 91 kts 90°
2026-05-08 20:43 38.28774 -104.47911 4785 ft 98 kts 90°
2026-05-08 20:43 38.28773 -104.47030 4944 ft 103 kts 88°
2026-05-08 20:44 38.28941 -104.46100 5043 ft 115 kts 74°
2026-05-08 20:44 38.29163 -104.45028 5081 ft 134 kts 81°
2026-05-08 20:44 38.29475 -104.43868 5295 ft 147 kts 60°
2026-05-08 20:44 38.30274 -104.43048 5714 ft 152 kts 25°
2026-05-08 20:45 38.31353 -104.42819 6119 ft 160 kts
2026-05-08 20:45 38.32090 -104.42790 6390 ft 161 kts
2026-05-08 20:45 38.33574 -104.42746 6864 ft 163 kts
2026-05-08 20:45 38.34688 -104.42700 7345 ft 157 kts
2026-05-08 20:46 38.35786 -104.42649 7757 ft 158 kts
2026-05-08 20:46 38.36886 -104.42595 8170 ft 159 kts
2026-05-08 20:46 38.37982 -104.42541 8599 ft 157 kts
2026-05-08 20:46 38.39089 -104.42485 9018 ft 157 kts 360°
2026-05-08 20:47 38.40176 -104.42428 9434 ft 156 kts 356°
2026-05-08 20:47 38.41252 -104.42375 9876 ft 154 kts 357°
2026-05-08 20:47 38.42327 -104.42321 10250 ft 155 kts 358°
2026-05-08 20:47 38.43407 -104.42270 10620 ft 155 kts 357°
2026-05-08 20:48 38.44484 -104.42215 10983 ft 156 kts 357°
2026-05-08 20:48 38.45561 -104.42163 11329 ft 157 kts 359°
2026-05-08 20:48 38.46589 -104.42111 11692 ft 157 kts 359°
2026-05-08 20:48 38.47677 -104.42057 12085 ft 156 kts 359°
2026-05-08 20:49 38.48768 -104.42004 12462 ft 157 kts 359°
2026-05-08 20:49 38.49864 -104.41951 12839 ft 158 kts 358°
2026-05-08 20:49 38.50961 -104.41898 13247 ft 157 kts 358°
2026-05-08 20:49 38.52054 -104.41844 13640 ft 157 kts 357°
2026-05-08 20:50 38.53147 -104.41791 14005 ft 157 kts 357°
2026-05-08 20:50 38.54234 -104.41737 14373 ft 156 kts 356°
2026-05-08 20:50 38.55313 -104.41683 14733 ft 155 kts 356°
2026-05-08 20:50 38.56436 -104.41632 14825 ft 171 kts 356°
2026-05-08 20:51 38.57692 -104.41575 14820 ft 189 kts 357°
2026-05-08 20:51 38.59056 -104.41505 14816 ft 203 kts 358°
2026-05-08 20:51 38.60503 -104.41429 14809 ft 213 kts 358°
2026-05-08 20:51 38.62015 -104.41350 14801 ft 221 kts 358°
2026-05-08 20:52 38.63573 -104.41270 14793 ft 227 kts 358°
2026-05-08 20:52 38.65168 -104.41190 14792 ft 231 kts 358°
2026-05-08 20:52 38.66787 -104.41108 14790 ft 234 kts 358°
2026-05-08 20:52 38.68425 -104.41026 14872 ft 237 kts 358°
2026-05-08 20:53 38.70081 -104.40945 14878 ft 239 kts 358°
2026-05-08 20:53 38.71751 -104.40863 14882 ft 241 kts 358°
2026-05-08 20:53 38.73433 -104.40781 14883 ft 243 kts 358°
2026-05-08 20:53 38.75125 -104.40697 14896 ft 244 kts 358°
2026-05-08 20:54 38.76825 -104.40613 14904 ft 245 kts 358°
2026-05-08 20:54 38.78527 -104.40529 14917 ft 245 kts 358°
2026-05-08 20:54 38.80237 -104.40443 14926 ft 246 kts 359°
2026-05-08 20:54 38.81952 -104.40355 14934 ft 247 kts 358°
2026-05-08 20:55 38.83668 -104.40267 14941 ft 247 kts 358°
2026-05-08 20:55 38.85386 -104.40180 14949 ft 247 kts 359°
2026-05-08 20:55 38.87108 -104.40093 14955 ft 247 kts 358°
2026-05-08 20:55 38.88830 -104.40007 14961 ft 248 kts 359°
2026-05-08 20:56 38.90551 -104.39922 14964 ft 248 kts 359°
2026-05-08 20:56 38.92272 -104.39836 14970 ft 247 kts 357°
2026-05-08 20:56 38.93990 -104.39753 14970 ft 247 kts 357°
2026-05-08 20:56 38.95706 -104.39672 14968 ft 247 kts 357°
2026-05-08 20:57 38.97421 -104.39590 14970 ft 247 kts 357°
2026-05-08 20:57 38.99137 -104.39508 14967 ft 247 kts 357°
2026-05-08 20:57 39.00853 -104.39425 14962 ft 247 kts 357°
2026-05-08 20:57 39.02565 -104.39342 14954 ft 247 kts 357°
2026-05-08 20:58 39.04256 -104.39259 14942 ft 246 kts 357°
2026-05-08 20:58 39.05970 -104.39175 14936 ft 246 kts 357°
2026-05-08 20:58 39.07683 -104.39091 14927 ft 246 kts 357°
2026-05-08 20:58 39.09396 -104.39007 14916 ft 246 kts 357°
2026-05-08 20:59 39.11109 -104.38923 14907 ft 246 kts 357°
2026-05-08 20:59 39.12825 -104.38838 14901 ft 247 kts 357°
2026-05-08 20:59 39.14541 -104.38752 14908 ft 247 kts 356°
2026-05-08 20:59 39.16038 -104.38678 14898 ft 246 kts 356°
2026-05-08 21:00 39.17752 -104.38596 14888 ft 246 kts 356°
2026-05-08 21:00 39.19467 -104.38516 14876 ft 247 kts 356°
2026-05-08 21:00 39.21165 -104.38580 14863 ft 241 kts 346°
2026-05-08 21:00 39.22739 -104.39178 14870 ft 232 kts 324°
2026-05-08 21:01 39.23876 -104.40611 14816 ft 229 kts 309°
2026-05-08 21:01 39.24577 -104.41634 14752 ft 230 kts 309°
2026-05-08 21:01 39.25648 -104.43158 14575 ft 229 kts 310°
2026-05-08 21:01 39.26732 -104.44669 14357 ft 230 kts 310°
2026-05-08 21:02 39.27817 -104.46165 14192 ft 228 kts 310°
2026-05-08 21:02 39.28902 -104.47652 14013 ft 227 kts 310°
2026-05-08 21:02 39.29986 -104.49137 13844 ft 227 kts 310°
2026-05-08 21:02 39.31071 -104.50623 13643 ft 228 kts 310°
2026-05-08 21:03 39.32160 -104.52116 13435 ft 229 kts 310°
2026-05-08 21:03 39.33251 -104.53612 13245 ft 229 kts 311°
2026-05-08 21:03 39.34338 -104.55104 13148 ft 226 kts 311°
2026-05-08 21:03 39.35418 -104.56584 13006 ft 226 kts 311°
2026-05-08 21:04 39.36495 -104.58059 12851 ft 225 kts 311°
2026-05-08 21:04 39.37569 -104.59530 12743 ft 225 kts 311°
2026-05-08 21:04 39.38644 -104.61004 12591 ft 225 kts 311°
2026-05-08 21:04 39.39720 -104.62481 12442 ft 226 kts 311°
2026-05-08 21:05 39.40796 -104.63960 12281 ft 226 kts 311°
2026-05-08 21:05 39.41922 -104.65374 12126 ft 227 kts 320°
2026-05-08 21:05 39.43337 -104.66300 11943 ft 232 kts 340°
2026-05-08 21:05 39.44951 -104.66504 11782 ft 235 kts 357°
2026-05-08 21:06 39.46581 -104.66482 11602 ft 236 kts 356°
2026-05-08 21:06 39.48232 -104.66474 11448 ft 236 kts 356°
2026-05-08 21:06 39.49875 -104.66460 11379 ft 236 kts 356°
2026-05-08 21:06 39.51515 -104.66442 11314 ft 235 kts 357°
2026-05-08 21:07 39.53162 -104.66418 11117 ft 241 kts 357°
2026-05-08 21:07 39.54870 -104.66389 10787 ft 247 kts 358°
2026-05-08 21:07 39.56594 -104.66359 10480 ft 248 kts 358°
2026-05-08 21:07 39.58319 -104.66344 10167 ft 248 kts 358°
2026-05-08 21:08 39.60047 -104.66331 9881 ft 248 kts 358°
2026-05-08 21:08 39.61778 -104.66317 9519 ft 249 kts 358°
2026-05-08 21:08 39.63514 -104.66290 9189 ft 249 kts 359°
2026-05-08 21:08 39.65247 -104.66261 8836 ft 249 kts 359°
2026-05-08 21:09 39.66967 -104.66233 8519 ft 244 kts 359°
2026-05-08 21:09 39.68630 -104.66221 8238 ft 234 kts 359°
2026-05-08 21:09 39.70221 -104.66216 7941 ft 222 kts
2026-05-08 21:09 39.71721 -104.66201 7641 ft 210 kts
2026-05-08 21:10 39.73145 -104.66179 7371 ft 200 kts
2026-05-08 21:10 39.74498 -104.66156 7135 ft 186 kts
2026-05-08 21:10 39.75718 -104.66137 6921 ft 165 kts
2026-05-08 21:10 39.76801 -104.66128 6695 ft 147 kts
2026-05-08 21:11 39.77766 -104.66131 6535 ft 132 kts
2026-05-08 21:11 39.78639 -104.66092 6371 ft 117 kts
2026-05-08 21:11 39.79413 -104.66068 6195 ft 107 kts
2026-05-08 21:11 39.80137 -104.66079 5990 ft 103 kts
2026-05-08 21:12 39.80857 -104.66070 5877 ft 105 kts
2026-05-08 21:12 39.81591 -104.66074 5767 ft 106 kts
2026-05-08 21:12 39.82339 -104.66061 5637 ft 106 kts
2026-05-08 21:12 39.83069 -104.66058 5486 ft 103 kts
2026-05-08 21:13 39.83736 -104.66043 5426 ft 85 kts 356°
2026-05-08 21:13 39.84113 -104.66037 5414 ft 36 kts 358°
2026-05-08 21:13 39.84340 -104.66042 5409 ft 30 kts 358°
2026-05-08 21:13 39.84534 -104.66039 5414 ft 27 kts
2026-05-08 21:14 39.84711 -104.66061 5410 ft 24 kts 351°
2026-05-08 21:14 39.84865 -104.66136 5406 ft 23 kts 332°
2026-05-08 21:14 39.85010 -104.66229 5401 ft 24 kts 345°
2026-05-08 21:14 39.85170 -104.66252 5395 ft 17 kts 326°
2026-05-08 21:15 39.85241 -104.66351 5390 ft 17 kts 345°
2026-05-08 21:15 39.85370 -104.66355 5390 ft 20 kts
2026-05-08 21:15 39.85516 -104.66354 5389 ft 21 kts 341°
2026-05-08 21:15 39.85685 -104.66353 5383 ft 27 kts
2026-05-08 21:16 39.85872 -104.66350 5381 ft 25 kts 358°
2026-05-08 21:16 39.86020 -104.66347 5380 ft 18 kts
2026-05-08 21:16 39.86103 -104.66407 5376 ft 14 kts 275°
2026-05-08 21:16 39.86168 -104.66508 5374 ft 18 kts 354°
2026-05-08 21:17 39.86279 -104.66510 5372 ft 13 kts
2026-05-08 21:17 39.86335 -104.66519 5373 ft 3 kts 316°
2026-05-08 21:17 39.86349 -104.66572 5372 ft 0 kts 266°